Date,TemperatureHighF,TemperatureAvgF,TemperatureLowF,DewpointHighF,DewpointAvgF,DewpointLowF,HumidityHigh,HumidityAvg,HumidityLow,PressureMaxIn,PressureMinIn,WindSpeedMaxMPH,WindSpeedAvgMPH,GustSpeedMaxMPH,PrecipitationSumIn
2013-3-1,33,24,21,20,16,14,78,71,55,30.34,30.22,8,2,11,0.00
2013-3-2,38,23,2,14,12,-5,87,63,34,30.34,30.16,6,1,7,0.00
2013-3-3,37,25,14,13,10,7,79,54,33,30.16,29.97,9,3,10,0.00
2013-3-4,25,24,23,21,16,9,92,73,50,30.03,29.95,10,4,14,0.00
2013-3-5,37,26,20,28,22,17,92,84,65,30.29,29.97,5,1,6,0.00
2013-3-6,38,21,2,21,14,-2,90,76,47,30.44,30.27,0,0,0,0.10
2013-3-7,37,5,0,20,0,-4,85,82,50,30.35,30.21,5,0,7,0.00
2013-3-8,48,30,14,30,22,10,93,76,46,30.30,30.07,6,1,7,0.19
2013-3-9,38,34,32,36,32,27,97,92,72,30.07,29.69,6,2,7,0.71
2013-3-10,36,32,28,32,27,22,97,82,71,29.97,29.79,12,4,16,0.01
2013-3-11,33,27,20,23,20,15,83,75,62,29.92,29.75,10,4,14,0.00
2013-3-12,34,24,18,20,14,10,86,67,44,30.19,29.83,11,4,15,0.00
2013-3-13,35,21,8,17,12,5,90,70,39,30.36,30.19,8,3,10,0.00
2013-3-14,44,31,22,30,24,15,91,74,56,30.23,30.00,6,2,7,0.14
2013-3-15,34,30,22,30,26,18,93,87,79,30.01,29.84,10,3,13,0.03
2013-3-16,30,20,7,18,12,1,89,71,51,30.23,29.92,8,3,11,0.07
2013-3-17,31,15,-4,18,5,-8,84,64,44,30.27,29.87,9,3,12,0.00
2013-3-18,26,23,11,20,17,5,77,76,69,29.87,29.59,15,8,21,0.00
2013-3-19,28,14,5,8,2,-4,78,61,38,30.18,29.80,15,7,20,0.00
2013-3-20,27,13,3,6,0,-4,73,58,40,30.20,30.09,12,5,16,0.00
2013-3-21,36,13,-7,12,3,-11,84,65,38,30.12,30.03,6,1,7,0.03
2013-3-22,43,21,-2,16,9,-6,89,64,33,30.09,30.03,6,1,7,0.02
2013-3-23,42,28,10,19,15,7,90,62,37,30.15,30.06,7,2,7,0.00
2013-3-24,36,32,26,23,22,-50,88,67,60,30.09,30.01,8,2,12,0.00
2013-3-25,43,35,31,23,22,19,66,59,42,30.20,30.00,6,2,8,0.00
2013-3-26,45,32,24,26,21,18,76,65,45,30.28,30.20,8,2,9,0.00
2013-3-27,52,28,22,21,18,15,78,70,29,30.32,30.28,6,0,6,0.00
2013-3-28,52,32,14,23,19,11,91,63,31,30.34,30.25,7,1,9,0.00
2013-3-29,54,38,22,37,30,19,89,71,51,30.28,29.97,7,2,9,0.00
2013-3-30,40,39,39,35,35,35,85,85,84,30.05,30.05,3,2,4,0.00
2013-3-31,39,39,39,35,35,35,85,85,85,30.05,30.05,2,2,2,0.00